owner,sensor,date,latitude,longitude,air_temperature,qcFlag 
COMPS,ioos:station:USF.COMPS:ARP:1,2016-02-01T00:00:00Z,28.4330,-82.6670,18.4,1111122 
COMPS,ioos:station:USF.COMPS:ARP:1,2016-02-01T00:06:00Z,28.4330,-82.6670,18.39,1111122 
COMPS,ioos:station:USF.COMPS:ARP:1,2016-02-01T00:12:00Z,28.4330,-82.6670,18.22,1111122 
COMPS,ioos:station:USF.COMPS:ARP:1,2016-02-01T00:18:00Z,28.4330,-82.6670,17.91,1111122 
COMPS,ioos:station:USF.COMPS:ARP:1,2016-02-01T00:24:00Z,28.4330,-82.6670,17.82,1111122 
COMPS,ioos:station:USF.COMPS:ARP:1,2016-02-01T00:30:00Z,28.4330,-82.6670,17.84,1111122 
COMPS,ioos:station:USF.COMPS:ARP:1,2016-02-01T00:36:00Z,28.4330,-82.6670,17.84,1111122 
COMPS,ioos:station:USF.COMPS:ARP:1,2016-02-01T00:42:00Z,28.4330,-82.6670,17.84,1111122 
COMPS,ioos:station:USF.COMPS:ARP:1,2016-02-01T00:48:00Z,28.4330,-82.6670,17.7,1111122 
COMPS,ioos:station:USF.COMPS:ARP:1,2016-02-01T00:54:00Z,28.4330,-82.6670,17.79,1111122 
COMPS,ioos:station:USF.COMPS:ARP:1,2016-02-01T03:00:00Z,28.4330,-82.6670,18.11,1111122 
COMPS,ioos:station:USF.COMPS:ARP:1,2016-02-01T03:06:00Z,28.4330,-82.6670,18.01,1111122 
COMPS,ioos:station:USF.COMPS:ARP:1,2016-02-01T03:12:00Z,28.4330,-82.6670,17.91,1111122 
COMPS,ioos:station:USF.COMPS:ARP:1,2016-02-01T03:18:00Z,28.4330,-82.6670,17.67,1111122 
COMPS,ioos:station:USF.COMPS:ARP:1,2016-02-01T03:24:00Z,28.4330,-82.6670,17.59,1111122 
COMPS,ioos:station:USF.COMPS:ARP:1,2016-02-01T03:30:00Z,28.4330,-82.6670,17.69,1111122 
COMPS,ioos:station:USF.COMPS:ARP:1,2016-02-01T03:36:00Z,28.4330,-82.6670,17.57,1111122 
COMPS,ioos:station:USF.COMPS:ARP:1,2016-02-01T03:42:00Z,28.4330,-82.6670,17.35,1111122 
COMPS,ioos:station:USF.COMPS:ARP:1,2016-02-01T03:48:00Z,28.4330,-82.6670,17.34,1111122 
COMPS,ioos:station:USF.COMPS:ARP:1,2016-02-01T03:54:00Z,28.4330,-82.6670,17.45,1111122 
COMPS,ioos:station:USF.COMPS:ARP:1,2016-02-01T04:00:00Z,28.4330,-82.6670,17.37,1111122 
COMPS,ioos:station:USF.COMPS:ARP:1,2016-02-01T04:06:00Z,28.4330,-82.6670,17.42,1111122 
COMPS,ioos:station:USF.COMPS:ARP:1,2016-02-01T04:12:00Z,28.4330,-82.6670,17.43,1111122 
COMPS,ioos:station:USF.COMPS:ARP:1,2016-02-01T04:18:00Z,28.4330,-82.6670,17.34,1111122 
COMPS,ioos:station:USF.COMPS:ARP:1,2016-02-01T04:24:00Z,28.4330,-82.6670,17.43,1111122 
COMPS,ioos:station:USF.COMPS:ARP:1,2016-02-01T04:30:00Z,28.4330,-82.6670,17.44,1111122 
COMPS,ioos:station:USF.COMPS:ARP:1,2016-02-01T04:36:00Z,28.4330,-82.6670,17.58,1111122 
COMPS,ioos:station:USF.COMPS:ARP:1,2016-02-01T04:42:00Z,28.4330,-82.6670,17.62,1111122 
COMPS,ioos:station:USF.COMPS:ARP:1,2016-02-01T04:48:00Z,28.4330,-82.6670,17.62,1111122 
COMPS,ioos:station:USF.COMPS:ARP:1,2016-02-01T04:54:00Z,28.4330,-82.6670,17.72,1111122 
COMPS,ioos:station:USF.COMPS:ARP:1,2016-02-01T05:00:00Z,28.4330,-82.6670,17.72,1111122 
COMPS,ioos:station:USF.COMPS:ARP:1,2016-02-01T05:06:00Z,28.4330,-82.6670,17.8,1111122 
COMPS,ioos:station:USF.COMPS:ARP:1,2016-02-01T05:12:00Z,28.4330,-82.6670,17.76,1111122 
COMPS,ioos:station:USF.COMPS:ARP:1,2016-02-01T05:18:00Z,28.4330,-82.6670,17.83,1111122 
COMPS,ioos:station:USF.COMPS:ARP:1,2016-02-01T05:24:00Z,28.4330,-82.6670,17.88,1111122 
COMPS,ioos:station:USF.COMPS:ARP:1,2016-02-01T05:30:00Z,28.4330,-82.6670,17.88,1111122 
COMPS,ioos:station:USF.COMPS:ARP:1,2016-02-01T05:36:00Z,28.4330,-82.6670,17.85,1111122 
COMPS,ioos:station:USF.COMPS:ARP:1,2016-02-01T05:42:00Z,28.4330,-82.6670,17.83,1111122 
COMPS,ioos:station:USF.COMPS:ARP:1,2016-02-01T05:48:00Z,28.4330,-82.6670,17.8,1111122 
COMPS,ioos:station:USF.COMPS:ARP:1,2016-02-01T05:54:00Z,28.4330,-82.6670,17.82,1111122 
COMPS,ioos:station:USF.COMPS:ARP:1,2016-02-01T06:00:00Z,28.4330,-82.6670,17.62,1111122 
COMPS,ioos:station:USF.COMPS:ARP:1,2016-02-01T06:06:00Z,28.4330,-82.6670,17.59,1111122 
COMPS,ioos:station:USF.COMPS:ARP:1,2016-02-01T06:12:00Z,28.4330,-82.6670,17.44,1111122 
COMPS,ioos:station:USF.COMPS:ARP:1,2016-02-01T06:18:00Z,28.4330,-82.6670,17.42,1111122 
COMPS,ioos:station:USF.COMPS:ARP:1,2016-02-01T06:24:00Z,28.4330,-82.6670,17.49,1111122 
COMPS,ioos:station:USF.COMPS:ARP:1,2016-02-01T06:30:00Z,28.4330,-82.6670,17.61,1111122 
COMPS,ioos:station:USF.COMPS:ARP:1,2016-02-01T06:36:00Z,28.4330,-82.6670,17.57,1111122 
COMPS,ioos:station:USF.COMPS:ARP:1,2016-02-01T06:42:00Z,28.4330,-82.6670,17.49,1111122 
COMPS,ioos:station:USF.COMPS:ARP:1,2016-02-01T06:48:00Z,28.4330,-82.6670,17.43,1111122 
COMPS,ioos:station:USF.COMPS:ARP:1,2016-02-01T06:54:00Z,28.4330,-82.6670,17.47,1111122 
COMPS,ioos:station:USF.COMPS:ARP:1,2016-02-01T07:00:00Z,28.4330,-82.6670,17.33,1111122 
COMPS,ioos:station:USF.COMPS:ARP:1,2016-02-01T07:06:00Z,28.4330,-82.6670,17.31,1111122 
COMPS,ioos:station:USF.COMPS:ARP:1,2016-02-01T07:12:00Z,28.4330,-82.6670,17.34,1111122 
COMPS,ioos:station:USF.COMPS:ARP:1,2016-02-01T07:18:00Z,28.4330,-82.6670,17.34,1111122 
COMPS,ioos:station:USF.COMPS:ARP:1,2016-02-01T07:24:00Z,28.4330,-82.6670,17.39,1111122 
COMPS,ioos:station:USF.COMPS:ARP:1,2016-02-01T07:30:00Z,28.4330,-82.6670,17.4,1111122 
COMPS,ioos:station:USF.COMPS:ARP:1,2016-02-01T07:36:00Z,28.4330,-82.6670,17.48,1111122 
COMPS,ioos:station:USF.COMPS:ARP:1,2016-02-01T07:42:00Z,28.4330,-82.6670,17.4,1111122 
COMPS,ioos:station:USF.COMPS:ARP:1,2016-02-01T07:48:00Z,28.4330,-82.6670,17.36,1111122 
COMPS,ioos:station:USF.COMPS:ARP:1,2016-02-01T07:54:00Z,28.4330,-82.6670,17.45,1111122 
COMPS,ioos:station:USF.COMPS:ARP:1,2016-02-01T08:00:00Z,28.4330,-82.6670,17.34,1111122 
COMPS,ioos:station:USF.COMPS:ARP:1,2016-02-01T08:06:00Z,28.4330,-82.6670,17.4,1111122 
COMPS,ioos:station:USF.COMPS:ARP:1,2016-02-01T08:12:00Z,28.4330,-82.6670,17.43,1111122 
COMPS,ioos:station:USF.COMPS:ARP:1,2016-02-01T08:18:00Z,28.4330,-82.6670,17.46,1111122 
COMPS,ioos:station:USF.COMPS:ARP:1,2016-02-01T08:24:00Z,28.4330,-82.6670,17.46,1111122 
COMPS,ioos:station:USF.COMPS:ARP:1,2016-02-01T08:30:00Z,28.4330,-82.6670,17.46,1111122 
COMPS,ioos:station:USF.COMPS:ARP:1,2016-02-01T08:36:00Z,28.4330,-82.6670,17.48,1111122 
COMPS,ioos:station:USF.COMPS:ARP:1,2016-02-01T08:42:00Z,28.4330,-82.6670,17.49,1111122 
COMPS,ioos:station:USF.COMPS:ARP:1,2016-02-01T08:48:00Z,28.4330,-82.6670,17.52,1111122 
COMPS,ioos:station:USF.COMPS:ARP:1,2016-02-01T08:54:00Z,28.4330,-82.6670,17.64,1111122 
COMPS,ioos:station:USF.COMPS:ARP:1,2016-02-01T09:00:00Z,28.4330,-82.6670,17.48,1111122 
COMPS,ioos:station:USF.COMPS:ARP:1,2016-02-01T09:06:00Z,28.4330,-82.6670,17.41,1111122 
COMPS,ioos:station:USF.COMPS:ARP:1,2016-02-01T09:12:00Z,28.4330,-82.6670,17.42,1111122 
COMPS,ioos:station:USF.COMPS:ARP:1,2016-02-01T09:18:00Z,28.4330,-82.6670,17.48,1111122 
COMPS,ioos:station:USF.COMPS:ARP:1,2016-02-01T09:24:00Z,28.4330,-82.6670,17.49,1111122 
COMPS,ioos:station:USF.COMPS:ARP:1,2016-02-01T09:30:00Z,28.4330,-82.6670,17.48,1111122 
COMPS,ioos:station:USF.COMPS:ARP:1,2016-02-01T09:36:00Z,28.4330,-82.6670,17.48,1111122 
COMPS,ioos:station:USF.COMPS:ARP:1,2016-02-01T09:42:00Z,28.4330,-82.6670,17.49,1111122 
COMPS,ioos:station:USF.COMPS:ARP:1,2016-02-01T09:48:00Z,28.4330,-82.6670,17.52,1111122 
COMPS,ioos:station:USF.COMPS:ARP:1,2016-02-01T09:54:00Z,28.4330,-82.6670,17.72,1111122 
COMPS,ioos:station:USF.COMPS:ARP:1,2016-02-01T10:00:00Z,28.4330,-82.6670,17.62,1111122 
COMPS,ioos:station:USF.COMPS:ARP:1,2016-02-01T10:06:00Z,28.4330,-82.6670,17.62,1111122 
COMPS,ioos:station:USF.COMPS:ARP:1,2016-02-01T10:12:00Z,28.4330,-82.6670,17.62,1111122 
COMPS,ioos:station:USF.COMPS:ARP:1,2016-02-01T10:18:00Z,28.4330,-82.6670,17.66,1111122 
COMPS,ioos:station:USF.COMPS:ARP:1,2016-02-01T10:24:00Z,28.4330,-82.6670,17.75,1111122 
COMPS,ioos:station:USF.COMPS:ARP:1,2016-02-01T10:30:00Z,28.4330,-82.6670,17.81,1111122 
COMPS,ioos:station:USF.COMPS:ARP:1,2016-02-01T10:36:00Z,28.4330,-82.6670,17.89,1111122 
COMPS,ioos:station:USF.COMPS:ARP:1,2016-02-01T10:42:00Z,28.4330,-82.6670,17.88,1111122 
COMPS,ioos:station:USF.COMPS:ARP:1,2016-02-01T10:48:00Z,28.4330,-82.6670,17.89,1111122 
COMPS,ioos:station:USF.COMPS:ARP:1,2016-02-01T10:54:00Z,28.4330,-82.6670,17.99,1111122 
COMPS,ioos:station:USF.COMPS:ARP:1,2016-02-01T11:00:00Z,28.4330,-82.6670,17.86,1111122 
COMPS,ioos:station:USF.COMPS:ARP:1,2016-02-01T11:06:00Z,28.4330,-82.6670,17.92,1111122 
COMPS,ioos:station:USF.COMPS:ARP:1,2016-02-01T11:12:00Z,28.4330,-82.6670,18.12,1111122 
COMPS,ioos:station:USF.COMPS:ARP:1,2016-02-01T11:18:00Z,28.4330,-82.6670,18.37,1111122 
COMPS,ioos:station:USF.COMPS:ARP:1,2016-02-01T11:24:00Z,28.4330,-82.6670,18.31,1111122 
COMPS,ioos:station:USF.COMPS:ARP:1,2016-02-01T11:30:00Z,28.4330,-82.6670,18.28,1111122 
COMPS,ioos:station:USF.COMPS:ARP:1,2016-02-01T11:36:00Z,28.4330,-82.6670,18.2,1111122 
COMPS,ioos:station:USF.COMPS:ARP:1,2016-02-01T11:42:00Z,28.4330,-82.6670,18.08,1111122 
COMPS,ioos:station:USF.COMPS:ARP:1,2016-02-01T11:48:00Z,28.4330,-82.6670,18.02,1111122 
COMPS,ioos:station:USF.COMPS:ARP:1,2016-02-01T11:54:00Z,28.4330,-82.6670,18.08,1111122 
COMPS,ioos:station:USF.COMPS:ARP:1,2016-02-01T12:00:00Z,28.4330,-82.6670,17.79,1111122 
COMPS,ioos:station:USF.COMPS:ARP:1,2016-02-01T12:06:00Z,28.4330,-82.6670,17.71,1111122 
COMPS,ioos:station:USF.COMPS:ARP:1,2016-02-01T12:12:00Z,28.4330,-82.6670,17.62,1111122 
COMPS,ioos:station:USF.COMPS:ARP:1,2016-02-01T12:18:00Z,28.4330,-82.6670,17.59,1111122 
COMPS,ioos:station:USF.COMPS:ARP:1,2016-02-01T12:24:00Z,28.4330,-82.6670,17.48,1111122 
COMPS,ioos:station:USF.COMPS:ARP:1,2016-02-01T12:30:00Z,28.4330,-82.6670,17.4,1111122 
COMPS,ioos:station:USF.COMPS:ARP:1,2016-02-01T12:36:00Z,28.4330,-82.6670,17.35,1111122 
COMPS,ioos:station:USF.COMPS:ARP:1,2016-02-01T12:42:00Z,28.4330,-82.6670,17.34,1111122 
COMPS,ioos:station:USF.COMPS:ARP:1,2016-02-01T12:48:00Z,28.4330,-82.6670,17.41,1111122 
COMPS,ioos:station:USF.COMPS:ARP:1,2016-02-01T12:54:00Z,28.4330,-82.6670,17.59,1111122 
COMPS,ioos:station:USF.COMPS:ARP:1,2016-02-01T13:00:00Z,28.4330,-82.6670,17.59,1111122 
COMPS,ioos:station:USF.COMPS:ARP:1,2016-02-01T13:06:00Z,28.4330,-82.6670,17.66,1111122 
COMPS,ioos:station:USF.COMPS:ARP:1,2016-02-01T13:12:00Z,28.4330,-82.6670,17.75,1111122 
COMPS,ioos:station:USF.COMPS:ARP:1,2016-02-01T13:18:00Z,28.4330,-82.6670,17.81,1111122 
COMPS,ioos:station:USF.COMPS:ARP:1,2016-02-01T13:24:00Z,28.4330,-82.6670,17.93,1111122 
COMPS,ioos:station:USF.COMPS:ARP:1,2016-02-01T13:30:00Z,28.4330,-82.6670,18.04,1111122 
COMPS,ioos:station:USF.COMPS:ARP:1,2016-02-01T13:36:00Z,28.4330,-82.6670,18.16,1111122 
COMPS,ioos:station:USF.COMPS:ARP:1,2016-02-01T13:42:00Z,28.4330,-82.6670,18.25,1111122 
COMPS,ioos:station:USF.COMPS:ARP:1,2016-02-01T13:48:00Z,28.4330,-82.6670,18.3,1111122 
COMPS,ioos:station:USF.COMPS:ARP:1,2016-02-01T13:54:00Z,28.4330,-82.6670,18.46,1111122 
COMPS,ioos:station:USF.COMPS:ARP:1,2016-02-01T14:00:00Z,28.4330,-82.6670,18.43,1111122 
COMPS,ioos:station:USF.COMPS:ARP:1,2016-02-01T14:06:00Z,28.4330,-82.6670,18.53,1111122 
COMPS,ioos:station:USF.COMPS:ARP:1,2016-02-01T14:12:00Z,28.4330,-82.6670,18.67,1111122 
COMPS,ioos:station:USF.COMPS:ARP:1,2016-02-01T14:18:00Z,28.4330,-82.6670,18.85,1111122 
COMPS,ioos:station:USF.COMPS:ARP:1,2016-02-01T14:24:00Z,28.4330,-82.6670,19.1,1111122 
COMPS,ioos:station:USF.COMPS:ARP:1,2016-02-01T14:30:00Z,28.4330,-82.6670,19.43,1111122 
COMPS,ioos:station:USF.COMPS:ARP:1,2016-02-01T14:36:00Z,28.4330,-82.6670,19.76,1111122 
COMPS,ioos:station:USF.COMPS:ARP:1,2016-02-01T14:42:00Z,28.4330,-82.6670,19.95,1111122 
COMPS,ioos:station:USF.COMPS:ARP:1,2016-02-01T14:48:00Z,28.4330,-82.6670,20.1,1111122 
COMPS,ioos:station:USF.COMPS:ARP:1,2016-02-01T14:54:00Z,28.4330,-82.6670,20.31,1111122 
COMPS,ioos:station:USF.COMPS:ARP:1,2016-02-01T15:00:00Z,28.4330,-82.6670,20.32,1111122 
COMPS,ioos:station:USF.COMPS:ARP:1,2016-02-01T15:06:00Z,28.4330,-82.6670,20.53,1111122 
COMPS,ioos:station:USF.COMPS:ARP:1,2016-02-01T15:12:00Z,28.4330,-82.6670,20.67,1111122 
COMPS,ioos:station:USF.COMPS:ARP:1,2016-02-01T15:18:00Z,28.4330,-82.6670,20.95,1111122 
COMPS,ioos:station:USF.COMPS:ARP:1,2016-02-01T15:24:00Z,28.4330,-82.6670,21.24,1111122 
COMPS,ioos:station:USF.COMPS:ARP:1,2016-02-01T15:30:00Z,28.4330,-82.6670,21.45,1111122 
COMPS,ioos:station:USF.COMPS:ARP:1,2016-02-01T15:36:00Z,28.4330,-82.6670,21.64,1111122 
COMPS,ioos:station:USF.COMPS:ARP:1,2016-02-01T15:42:00Z,28.4330,-82.6670,21.89,1111122 
COMPS,ioos:station:USF.COMPS:ARP:1,2016-02-01T15:48:00Z,28.4330,-82.6670,22.09,1111122 
COMPS,ioos:station:USF.COMPS:ARP:1,2016-02-01T15:54:00Z,28.4330,-82.6670,22.36,1111122 
COMPS,ioos:station:USF.COMPS:ARP:1,2016-02-01T16:00:00Z,28.4330,-82.6670,22.51,1111122 
COMPS,ioos:station:USF.COMPS:ARP:1,2016-02-01T16:06:00Z,28.4330,-82.6670,22.84,1111122 
COMPS,ioos:station:USF.COMPS:ARP:1,2016-02-01T16:12:00Z,28.4330,-82.6670,23.03,1111122 
COMPS,ioos:station:USF.COMPS:ARP:1,2016-02-01T16:18:00Z,28.4330,-82.6670,23.03,1111122 
COMPS,ioos:station:USF.COMPS:ARP:1,2016-02-01T16:24:00Z,28.4330,-82.6670,22.89,1111122 
COMPS,ioos:station:USF.COMPS:ARP:1,2016-02-01T16:30:00Z,28.4330,-82.6670,23.15,1111122 
COMPS,ioos:station:USF.COMPS:ARP:1,2016-02-01T16:36:00Z,28.4330,-82.6670,23.38,1111122 
COMPS,ioos:station:USF.COMPS:ARP:1,2016-02-01T16:42:00Z,28.4330,-82.6670,23.47,1111122 
COMPS,ioos:station:USF.COMPS:ARP:1,2016-02-01T16:48:00Z,28.4330,-82.6670,22.42,1111122 
COMPS,ioos:station:USF.COMPS:ARP:1,2016-02-01T16:54:00Z,28.4330,-82.6670,21.77,1111122 
COMPS,ioos:station:USF.COMPS:ARP:1,2016-02-01T17:00:00Z,28.4330,-82.6670,21.64,1111122 
COMPS,ioos:station:USF.COMPS:ARP:1,2016-02-01T17:06:00Z,28.4330,-82.6670,21.68,1111122 
COMPS,ioos:station:USF.COMPS:ARP:1,2016-02-01T17:12:00Z,28.4330,-82.6670,21.98,1111122 
COMPS,ioos:station:USF.COMPS:ARP:1,2016-02-01T17:18:00Z,28.4330,-82.6670,22.07,1111122 
COMPS,ioos:station:USF.COMPS:ARP:1,2016-02-01T17:24:00Z,28.4330,-82.6670,22.18,1111122 
COMPS,ioos:station:USF.COMPS:ARP:1,2016-02-01T17:30:00Z,28.4330,-82.6670,21.98,1111122 
COMPS,ioos:station:USF.COMPS:ARP:1,2016-02-01T17:36:00Z,28.4330,-82.6670,22.16,1111122 
COMPS,ioos:station:USF.COMPS:ARP:1,2016-02-01T17:42:00Z,28.4330,-82.6670,22.38,1111122 
COMPS,ioos:station:USF.COMPS:ARP:1,2016-02-01T17:48:00Z,28.4330,-82.6670,22.52,1111122 
COMPS,ioos:station:USF.COMPS:ARP:1,2016-02-01T17:54:00Z,28.4330,-82.6670,22.28,1111122 
COMPS,ioos:station:USF.COMPS:ARP:1,2016-02-01T18:00:00Z,28.4330,-82.6670,21.9,1111122 
COMPS,ioos:station:USF.COMPS:ARP:1,2016-02-01T18:06:00Z,28.4330,-82.6670,22.15,1111122 
COMPS,ioos:station:USF.COMPS:ARP:1,2016-02-01T18:12:00Z,28.4330,-82.6670,22.04,1111122 
COMPS,ioos:station:USF.COMPS:ARP:1,2016-02-01T18:18:00Z,28.4330,-82.6670,21.69,1111122 
COMPS,ioos:station:USF.COMPS:ARP:1,2016-02-01T18:24:00Z,28.4330,-82.6670,22.2,1111122 
COMPS,ioos:station:USF.COMPS:ARP:1,2016-02-01T18:30:00Z,28.4330,-82.6670,21.87,1111122 
COMPS,ioos:station:USF.COMPS:ARP:1,2016-02-01T18:36:00Z,28.4330,-82.6670,21.93,1111122 
COMPS,ioos:station:USF.COMPS:ARP:1,2016-02-01T18:42:00Z,28.4330,-82.6670,21.76,1111122 
COMPS,ioos:station:USF.COMPS:ARP:1,2016-02-01T18:48:00Z,28.4330,-82.6670,21.61,1111122 
COMPS,ioos:station:USF.COMPS:ARP:1,2016-02-01T18:54:00Z,28.4330,-82.6670,21.69,1111122 
COMPS,ioos:station:USF.COMPS:ARP:1,2016-02-01T19:00:00Z,28.4330,-82.6670,21.63,1111122 
COMPS,ioos:station:USF.COMPS:ARP:1,2016-02-01T19:06:00Z,28.4330,-82.6670,21.83,1111122 
COMPS,ioos:station:USF.COMPS:ARP:1,2016-02-01T19:12:00Z,28.4330,-82.6670,22.24,1111122 
COMPS,ioos:station:USF.COMPS:ARP:1,2016-02-01T19:18:00Z,28.4330,-82.6670,22.08,1111122 
COMPS,ioos:station:USF.COMPS:ARP:1,2016-02-01T19:24:00Z,28.4330,-82.6670,22.21,1111122 
COMPS,ioos:station:USF.COMPS:ARP:1,2016-02-01T19:30:00Z,28.4330,-82.6670,22.7,1111122 
COMPS,ioos:station:USF.COMPS:ARP:1,2016-02-01T19:36:00Z,28.4330,-82.6670,22.44,1111122 
COMPS,ioos:station:USF.COMPS:ARP:1,2016-02-01T19:42:00Z,28.4330,-82.6670,22.33,1111122 
COMPS,ioos:station:USF.COMPS:ARP:1,2016-02-01T19:48:00Z,28.4330,-82.6670,22.23,1111122 
COMPS,ioos:station:USF.COMPS:ARP:1,2016-02-01T19:54:00Z,28.4330,-82.6670,21.92,1111122 
COMPS,ioos:station:USF.COMPS:ARP:1,2016-02-01T20:00:00Z,28.4330,-82.6670,22.02,1111122 
COMPS,ioos:station:USF.COMPS:ARP:1,2016-02-01T20:06:00Z,28.4330,-82.6670,22.07,1111122 
COMPS,ioos:station:USF.COMPS:ARP:1,2016-02-01T20:12:00Z,28.4330,-82.6670,22.35,1111122 
COMPS,ioos:station:USF.COMPS:ARP:1,2016-02-01T20:18:00Z,28.4330,-82.6670,22.71,1111122 
COMPS,ioos:station:USF.COMPS:ARP:1,2016-02-01T20:24:00Z,28.4330,-82.6670,22.57,1111122 
COMPS,ioos:station:USF.COMPS:ARP:1,2016-02-01T20:30:00Z,28.4330,-82.6670,22.73,1111122 
COMPS,ioos:station:USF.COMPS:ARP:1,2016-02-01T20:36:00Z,28.4330,-82.6670,22.74,1111122 
COMPS,ioos:station:USF.COMPS:ARP:1,2016-02-01T20:42:00Z,28.4330,-82.6670,22.73,1111122 
COMPS,ioos:station:USF.COMPS:ARP:1,2016-02-01T20:48:00Z,28.4330,-82.6670,22.64,1111122 
COMPS,ioos:station:USF.COMPS:ARP:1,2016-02-01T20:54:00Z,28.4330,-82.6670,22.85,1111122 
COMPS,ioos:station:USF.COMPS:ARP:1,2016-02-01T21:00:00Z,28.4330,-82.6670,22.72,1111122 
COMPS,ioos:station:USF.COMPS:ARP:1,2016-02-01T21:06:00Z,28.4330,-82.6670,22.66,1111122 
COMPS,ioos:station:USF.COMPS:ARP:1,2016-02-01T21:12:00Z,28.4330,-82.6670,22.59,1111122 
COMPS,ioos:station:USF.COMPS:ARP:1,2016-02-01T21:18:00Z,28.4330,-82.6670,22.47,1111122 
COMPS,ioos:station:USF.COMPS:ARP:1,2016-02-01T21:24:00Z,28.4330,-82.6670,22.23,1111122 
COMPS,ioos:station:USF.COMPS:ARP:1,2016-02-01T21:30:00Z,28.4330,-82.6670,22.06,1111122 
COMPS,ioos:station:USF.COMPS:ARP:1,2016-02-01T21:36:00Z,28.4330,-82.6670,21.95,1111122 
COMPS,ioos:station:USF.COMPS:ARP:1,2016-02-01T21:42:00Z,28.4330,-82.6670,21.55,1111122 
COMPS,ioos:station:USF.COMPS:ARP:1,2016-02-01T21:48:00Z,28.4330,-82.6670,21.08,1111122 
COMPS,ioos:station:USF.COMPS:ARP:1,2016-02-01T21:54:00Z,28.4330,-82.6670,20.85,1111122 
COMPS,ioos:station:USF.COMPS:ARP:1,2016-02-01T22:00:00Z,28.4330,-82.6670,20.48,1111122 
COMPS,ioos:station:USF.COMPS:ARP:1,2016-02-01T22:06:00Z,28.4330,-82.6670,20.15,1111122 
COMPS,ioos:station:USF.COMPS:ARP:1,2016-02-01T22:12:00Z,28.4330,-82.6670,19.72,1111122 
COMPS,ioos:station:USF.COMPS:ARP:1,2016-02-01T22:18:00Z,28.4330,-82.6670,19.37,1111122 
COMPS,ioos:station:USF.COMPS:ARP:1,2016-02-01T22:24:00Z,28.4330,-82.6670,19.14,1111122 
COMPS,ioos:station:USF.COMPS:ARP:1,2016-02-01T22:30:00Z,28.4330,-82.6670,19.15,1111122 
COMPS,ioos:station:USF.COMPS:ARP:1,2016-02-01T22:36:00Z,28.4330,-82.6670,19.19,1111122 
COMPS,ioos:station:USF.COMPS:ARP:1,2016-02-01T22:42:00Z,28.4330,-82.6670,19.07,1111122 
COMPS,ioos:station:USF.COMPS:ARP:1,2016-02-01T22:48:00Z,28.4330,-82.6670,18.95,1111122 
COMPS,ioos:station:USF.COMPS:ARP:1,2016-02-01T22:54:00Z,28.4330,-82.6670,18.85,1111122 
COMPS,ioos:station:USF.COMPS:ARP:1,2016-02-01T23:00:00Z,28.4330,-82.6670,18.62,1111122 
COMPS,ioos:station:USF.COMPS:ARP:1,2016-02-01T23:06:00Z,28.4330,-82.6670,18.59,1111122 
COMPS,ioos:station:USF.COMPS:ARP:1,2016-02-01T23:12:00Z,28.4330,-82.6670,18.51,1111122 
COMPS,ioos:station:USF.COMPS:ARP:1,2016-02-01T23:18:00Z,28.4330,-82.6670,18.43,1111122 
COMPS,ioos:station:USF.COMPS:ARP:1,2016-02-01T23:24:00Z,28.4330,-82.6670,18.36,1111122 
COMPS,ioos:station:USF.COMPS:ARP:1,2016-02-01T23:30:00Z,28.4330,-82.6670,18.37,1111122 
COMPS,ioos:station:USF.COMPS:ARP:1,2016-02-01T23:36:00Z,28.4330,-82.6670,18.41,1111122 
COMPS,ioos:station:USF.COMPS:ARP:1,2016-02-01T23:42:00Z,28.4330,-82.6670,18.39,1111122 
COMPS,ioos:station:USF.COMPS:ARP:1,2016-02-01T23:48:00Z,28.4330,-82.6670,18.39,1111122 
COMPS,ioos:station:USF.COMPS:ARP:1,2016-02-01T23:54:00Z,28.4330,-82.6670,18.49,1111122 
COMPS,ioos:station:USF.COMPS:ARP:1,2016-02-02T00:00:00Z,28.4330,-82.6670,18.38,1111122 
COMPS,ioos:station:USF.COMPS:ARP:1,2016-02-02T00:06:00Z,28.4330,-82.6670,18.39,1111122 
COMPS,ioos:station:USF.COMPS:ARP:1,2016-02-02T00:12:00Z,28.4330,-82.6670,18.39,1111122 
COMPS,ioos:station:USF.COMPS:ARP:1,2016-02-02T00:18:00Z,28.4330,-82.6670,18.42,1111122 
COMPS,ioos:station:USF.COMPS:ARP:1,2016-02-02T00:24:00Z,28.4330,-82.6670,18.4,1111122 
COMPS,ioos:station:USF.COMPS:ARP:1,2016-02-02T00:30:00Z,28.4330,-82.6670,18.39,1111122 
COMPS,ioos:station:USF.COMPS:ARP:1,2016-02-02T00:36:00Z,28.4330,-82.6670,18.39,1111122 
COMPS,ioos:station:USF.COMPS:ARP:1,2016-02-02T00:42:00Z,28.4330,-82.6670,18.39,1111122 
COMPS,ioos:station:USF.COMPS:ARP:1,2016-02-02T00:48:00Z,28.4330,-82.6670,18.43,1111122 
COMPS,ioos:station:USF.COMPS:ARP:1,2016-02-02T00:54:00Z,28.4330,-82.6670,18.47,1111122 
COMPS,ioos:station:USF.COMPS:ARP:1,2016-02-02T01:00:00Z,28.4330,-82.6670,18.21,1111122 
COMPS,ioos:station:USF.COMPS:ARP:1,2016-02-02T01:06:00Z,28.4330,-82.6670,18.17,1111122 
COMPS,ioos:station:USF.COMPS:ARP:1,2016-02-02T01:12:00Z,28.4330,-82.6670,18.1,1111122 
COMPS,ioos:station:USF.COMPS:ARP:1,2016-02-02T01:18:00Z,28.4330,-82.6670,17.99,1111122 
COMPS,ioos:station:USF.COMPS:ARP:1,2016-02-02T01:24:00Z,28.4330,-82.6670,17.84,1111122 
COMPS,ioos:station:USF.COMPS:ARP:1,2016-02-02T01:30:00Z,28.4330,-82.6670,17.84,1111122 
COMPS,ioos:station:USF.COMPS:ARP:1,2016-02-02T01:36:00Z,28.4330,-82.6670,17.73,1111122 
COMPS,ioos:station:USF.COMPS:ARP:1,2016-02-02T01:42:00Z,28.4330,-82.6670,17.63,1111122 
COMPS,ioos:station:USF.COMPS:ARP:1,2016-02-02T01:48:00Z,28.4330,-82.6670,17.61,1111122 
COMPS,ioos:station:USF.COMPS:ARP:1,2016-02-02T01:54:00Z,28.4330,-82.6670,17.6,1111122 
COMPS,ioos:station:USF.COMPS:ARP:1,2016-02-02T03:00:00Z,28.4330,-82.6670,17.2,1111122 
COMPS,ioos:station:USF.COMPS:ARP:1,2016-02-02T03:06:00Z,28.4330,-82.6670,17.29,1111122 
COMPS,ioos:station:USF.COMPS:ARP:1,2016-02-02T03:12:00Z,28.4330,-82.6670,17.44,1111122 
COMPS,ioos:station:USF.COMPS:ARP:1,2016-02-02T03:18:00Z,28.4330,-82.6670,17.4,1111122 
COMPS,ioos:station:USF.COMPS:ARP:1,2016-02-02T03:24:00Z,28.4330,-82.6670,17.56,1111122 
COMPS,ioos:station:USF.COMPS:ARP:1,2016-02-02T03:30:00Z,28.4330,-82.6670,17.61,1111122 
COMPS,ioos:station:USF.COMPS:ARP:1,2016-02-02T03:36:00Z,28.4330,-82.6670,17.62,1111122 
COMPS,ioos:station:USF.COMPS:ARP:1,2016-02-02T03:42:00Z,28.4330,-82.6670,17.74,1111122 
COMPS,ioos:station:USF.COMPS:ARP:1,2016-02-02T03:48:00Z,28.4330,-82.6670,17.77,1111122 
COMPS,ioos:station:USF.COMPS:ARP:1,2016-02-02T03:54:00Z,28.4330,-82.6670,17.84,1111122 
COMPS,ioos:station:USF.COMPS:ARP:1,2016-02-02T04:00:00Z,28.4330,-82.6670,17.83,1111122 
COMPS,ioos:station:USF.COMPS:ARP:1,2016-02-02T04:06:00Z,28.4330,-82.6670,17.89,1111122 
COMPS,ioos:station:USF.COMPS:ARP:1,2016-02-02T04:12:00Z,28.4330,-82.6670,17.96,1111122 
COMPS,ioos:station:USF.COMPS:ARP:1,2016-02-02T04:18:00Z,28.4330,-82.6670,17.95,1111122 
COMPS,ioos:station:USF.COMPS:ARP:1,2016-02-02T04:24:00Z,28.4330,-82.6670,17.89,1111122 
COMPS,ioos:station:USF.COMPS:ARP:1,2016-02-02T04:30:00Z,28.4330,-82.6670,17.88,1111122 
COMPS,ioos:station:USF.COMPS:ARP:1,2016-02-02T04:36:00Z,28.4330,-82.6670,17.93,1111122 
COMPS,ioos:station:USF.COMPS:ARP:1,2016-02-02T04:42:00Z,28.4330,-82.6670,18.02,1111122 
COMPS,ioos:station:USF.COMPS:ARP:1,2016-02-02T04:48:00Z,28.4330,-82.6670,17.95,1111122 
COMPS,ioos:station:USF.COMPS:ARP:1,2016-02-02T04:54:00Z,28.4330,-82.6670,17.93,1111122 
COMPS,ioos:station:USF.COMPS:ARP:1,2016-02-02T05:00:00Z,28.4330,-82.6670,17.88,1111122 
COMPS,ioos:station:USF.COMPS:ARP:1,2016-02-02T05:06:00Z,28.4330,-82.6670,17.79,1111122 
COMPS,ioos:station:USF.COMPS:ARP:1,2016-02-02T05:12:00Z,28.4330,-82.6670,17.69,1111122 
COMPS,ioos:station:USF.COMPS:ARP:1,2016-02-02T05:18:00Z,28.4330,-82.6670,17.65,1111122 
COMPS,ioos:station:USF.COMPS:ARP:1,2016-02-02T05:24:00Z,28.4330,-82.6670,17.56,1111122 
COMPS,ioos:station:USF.COMPS:ARP:1,2016-02-02T05:30:00Z,28.4330,-82.6670,17.52,1111122 
COMPS,ioos:station:USF.COMPS:ARP:1,2016-02-02T05:36:00Z,28.4330,-82.6670,17.49,1111122 
COMPS,ioos:station:USF.COMPS:ARP:1,2016-02-02T05:42:00Z,28.4330,-82.6670,17.39,1111122 
COMPS,ioos:station:USF.COMPS:ARP:1,2016-02-02T05:48:00Z,28.4330,-82.6670,17.22,1111122 
COMPS,ioos:station:USF.COMPS:ARP:1,2016-02-02T05:54:00Z,28.4330,-82.6670,17.29,1111122 
COMPS,ioos:station:USF.COMPS:ARP:1,2016-02-02T06:00:00Z,28.4330,-82.6670,17.23,1111122 
COMPS,ioos:station:USF.COMPS:ARP:1,2016-02-02T06:06:00Z,28.4330,-82.6670,17.33,1111122 